DLH518 EDDF-MROC

Flight info

Callsign DLH518
Flight time N/A
Altitude 32000
Route OBOKA3D OBOKA Z29 TORNU DCT VICOT DCT GALSO Q63 KOPUL DCT ENHAQ DCT GAJIT DCT BAPHU DCT ARKIL/M081F320 DCT BEDRA DCT 4730N02000W 43N030W/M081F340 38N040W 33N050W/M081F360 2830N06000W DCT KOZIK M594 MLLER/N0473F360 DCT MNDEZ M594 CERDA A554 GTK M594 ALBBE UM594 GABUN/N0474F370 UM594 COLBY/N0469F380 DCT SPP UP798 COLOR BARRA3C
Aircraft A346/H-SDE2E3FGHIJ3J4J5M1P2RWXYZ/LB1D1

Departure

Time N/A
Airport Frankfurt Main Airport (EDDF)

Arrival

Time 2026-04-27 07:00
Airport Juan Santamaría International Airport (MROC)
Time Latitude Longitude Altitude Speed Heading
2026-04-27 06:47 10.29783 -84.36762 14787 ft 395 kts 240°
2026-04-27 06:47 10.28386 -84.39161 14319 ft 392 kts 240°
2026-04-27 06:47 10.27004 -84.41534 13849 ft 389 kts 240°
2026-04-27 06:48 10.25630 -84.43892 13381 ft 386 kts 240°
2026-04-27 06:48 10.24268 -84.46229 12989 ft 380 kts 240°
2026-04-27 06:48 10.22947 -84.48494 12877 ft 366 kts 240°
2026-04-27 06:48 10.21675 -84.50675 12664 ft 350 kts 240°
2026-04-27 06:49 10.20480 -84.52722 12545 ft 323 kts 240°
2026-04-27 06:49 10.19377 -84.54612 12456 ft 299 kts 240°
2026-04-27 06:49 10.18351 -84.56368 12400 ft 281 kts 241°
2026-04-27 06:49 10.17370 -84.58049 12298 ft 272 kts 241°
2026-04-27 06:50 10.16354 -84.59627 12177 ft 264 kts 227°
2026-04-27 06:50 10.14874 -84.60706 12037 ft 265 kts 202°
2026-04-27 06:50 10.13075 -84.61059 11874 ft 266 kts 176°
2026-04-27 06:50 10.11321 -84.60630 11656 ft 264 kts 152°
2026-04-27 06:51 10.09734 -84.59699 11454 ft 263 kts 147°
2026-04-27 06:51 10.08190 -84.58712 11247 ft 261 kts 147°
2026-04-27 06:51 10.06648 -84.57736 11036 ft 260 kts 147°
2026-04-27 06:51 10.05105 -84.56777 10830 ft 260 kts 148°
2026-04-27 06:52 10.03562 -84.55833 10627 ft 258 kts 148°
2026-04-27 06:52 10.02025 -84.54900 10438 ft 257 kts 148°
2026-04-27 06:52 10.00492 -84.53973 10227 ft 256 kts 148°
2026-04-27 06:52 9.98922 -84.53128 10026 ft 255 kts 161°
2026-04-27 06:53 9.97185 -84.52792 9813 ft 255 kts 174°
2026-04-27 06:53 9.95419 -84.52644 9520 ft 254 kts 174°
2026-04-27 06:53 9.93666 -84.52437 9226 ft 253 kts 171°
2026-04-27 06:53 9.91940 -84.52122 8931 ft 251 kts 166°
2026-04-27 06:54 9.90380 -84.51386 8583 ft 248 kts 136°
2026-04-27 06:54 9.89430 -84.49968 8312 ft 241 kts 106°
2026-04-27 06:54 9.89301 -84.48320 8107 ft 231 kts 83°
2026-04-27 06:54 9.89690 -84.46765 7842 ft 225 kts 71°
2026-04-27 06:55 9.90246 -84.45300 7588 ft 219 kts 68°
2026-04-27 06:55 9.90816 -84.43880 7317 ft 215 kts 68°
2026-04-27 06:55 9.91365 -84.42484 7055 ft 211 kts 69°
2026-04-27 06:55 9.91892 -84.41104 6789 ft 207 kts 69°
2026-04-27 06:56 9.92399 -84.39748 6531 ft 204 kts 70°
2026-04-27 06:56 9.92888 -84.38426 6267 ft 195 kts 70°
2026-04-27 06:56 9.93350 -84.37175 6002 ft 184 kts 70°
2026-04-27 06:56 9.93784 -84.35996 5755 ft 172 kts 70°
2026-04-27 06:57 9.94194 -84.34887 5531 ft 165 kts 70°
2026-04-27 06:57 9.94597 -84.33797 5319 ft 164 kts 71°
2026-04-27 06:57 9.94997 -84.32713 5117 ft 163 kts 71°
2026-04-27 06:57 9.95397 -84.31634 4900 ft 163 kts 71°
2026-04-27 06:58 9.95796 -84.30558 4684 ft 163 kts 71°
2026-04-27 06:58 9.96592 -84.28406 4248 ft 163 kts 69°
2026-04-27 06:58 9.96857 -84.27694 4103 ft 162 kts 69°
2026-04-27 06:59 9.97255 -84.26623 3887 ft 162 kts 69°
2026-04-27 06:59 9.97653 -84.25551 3665 ft 162 kts 69°
2026-04-27 06:59 9.98034 -84.24478 3431 ft 161 kts 69°
2026-04-27 06:59 9.98573 -84.23094 3179 ft 158 kts 70°
2026-04-27 07:00 9.98823 -84.22384 3086 ft 158 kts 68°
2026-04-27 07:00 9.99206 -84.21345 3000 ft 150 kts 64°
2026-04-27 07:00 9.99524 -84.20539 3041 ft 95 kts 69°
2026-04-27 07:00 9.99677 -84.20130 3044 ft 27 kts 70°
2026-04-27 07:01 9.99708 -84.20046 3046 ft 5 kts 62°
2026-04-27 07:01 9.99717 -84.20034 3044 ft 1 kts 52°
2026-04-27 07:01 9.99725 -84.20025 3045 ft 3 kts 38°
2026-04-27 07:01 9.99751 -84.20014 3047 ft 6 kts 12°
2026-04-27 07:02 9.99786 -84.20027 3042 ft 5 kts 298°
2026-04-27 07:02 9.99787 -84.20072 3043 ft 8 kts 258°
2026-04-27 07:02 9.99767 -84.20137 3042 ft 11 kts 250°
2026-04-27 07:02 9.99741 -84.20207 3042 ft 10 kts 249°
2026-04-27 07:03 9.99733 -84.20232 3042 ft 4 kts 258°
2026-04-27 07:03 9.99732 -84.20237 3044 ft 1 kts 264°
2026-04-27 07:03 9.99734 -84.20245 3042 ft 2 kts 287°
2026-04-27 07:03 9.99743 -84.20256 3042 ft 3 kts 318°
2026-04-27 07:04 9.99758 -84.20265 3044 ft 1 kts 336°
2026-04-27 07:04 9.99760 -84.20266 3044 ft 0 kts 336°
2026-04-27 07:04 9.99763 -84.20267 3043 ft 0 kts 339°
2026-04-27 07:05 9.99758 -84.20267 3044 ft 0 kts 339°